[[{"header":{"parameterUnit":"m.s-1","parameterCategory":1,"la1":30.2991,"la2":30.254,"lo1":-89.0895,"lo2":-89.0444,"dy":0.0017,"dx":0.0017,"nx":28,"ny":28,"refTime":"2024-08-01T03:00:00:Z","depth":0,"parameterNumber":2,"parameterNumberName":"U-component_of_WINDS"},"data":[0,0,0,0,0,0,0,0,0,0,0,0,0,0,0,0,0,0,0,0,0,0,0,0,0,0,0,0,0,0,0,0,0,0,0,0,0,0,0,0,0,0,0,0,0,0,0,0,0,0,0,0,0,0,0,0,0,0,4.0843,4.0845,0,4.0968,4.0969,4.0971,4.0898,4.0894,4.0891,4.0887,4.1018,4.1025,4.1032,0,0,0,0,0,0,0,0,0,0,0,0,0,4.0543,4.0549,4.0843,4.0845,4.0846,4.0968,4.097,4.0971,4.0899,4.0894,4.089,4.0886,4.1016,4.1024,4.1032,0,0,0,0,0,0,0,0,0,0,0,0,0,4.0671,4.0551,4.0843,4.0825,4.0824,4.0967,4.097,4.0972,4.0899,4.0894,4.0889,4.0884,4.1014,4.1023,4.1033,4.1203,0,0,4.1065,4.1069,0,0,0,0,0,0,0,0,4.0664,4.0682,4.0826,4.0826,4.0826,4.0912,4.0912,4.1049,4.0901,4.0871,4.0887,4.0881,4.0987,4.0999,4.1035,4.1209,4.1215,4.1065,4.1072,4.1076,4.1079,0,0,0,0,0,0,0,4.0655,4.0677,4.0893,4.0828,4.0828,4.081,4.0823,4.0937,4.0958,4.0873,4.0868,4.0884,4.0986,4.1025,4.1037,4.1216,4.1065,4.1074,4.1081,4.1085,4.1533,4.1538,0,0,0,0,0,0,4.0647,4.067,4.0889,4.0896,4.073,4.082,4.0834,4.089,4.0956,4.0961,4.0888,4.088,4.101,4.1025,4.1042,4.1242,4.1076,4.1086,4.1091,4.1527,4.1534,4.1541,0,0,0,0,0,0,4.0641,4.0668,4.0884,4.0782,4.0808,4.0831,4.0894,4.0895,4.0933,4.0967,4.0971,4.0924,4.1007,4.1027,4.1162,4.1245,4.109,4.1099,4.152,4.1529,4.1537,4.1645,0,0,0,0,0,0,4.0633,4.0666,4.073,4.0784,4.0814,4.1002,4.0899,4.0901,4.0951,4.0941,4.1002,4.1007,4.1004,4.1148,4.1172,4.1257,4.1107,4.1513,4.1524,4.1535,4.1634,4.1657,4.1676,0,0,0,0,0,4.0622,4.0757,4.0734,4.0761,4.0894,4.1007,4.1024,4.1018,4.0958,4.1023,4.1044,4.1005,4.1233,4.1162,4.119,4.1278,4.1508,4.1521,4.1534,4.1625,4.1652,4.1675,0,0,0,0,0,0,4.0714,4.0764,4.0739,4.0894,4.0947,4.0995,4.1076,4.1047,4.1119,4.1107,4.1096,4.1111,4.1251,4.1278,4.1199,4.1444,4.1361,4.138,4.1421,4.1447,4.1467,4.1457,4.1116,0,0,0,0,0,4.0752,4.0839,4.0878,4.1012,4.1039,4.1054,4.1103,4.1093,4.1147,4.1169,4.1201,4.1256,4.1339,4.1395,4.1474,4.1638,4.1649,4.1713,4.1733,4.175,4.1766,4.1853,4.188,4.1583,4.1583,4.1583,0,0,4.0833,4.087,4.0926,4.1031,4.1071,4.1161,4.1073,4.1173,4.1239,4.1185,4.1313,4.1339,4.1399,4.1549,4.1616,4.1576,4.1851,4.1767,4.178,4.1787,4.1869,4.1897,4.1922,4.1592,4.1591,4.1589,0,0,4.1024,4.1062,4.1176,4.1217,4.1277,4.1286,4.1313,4.1365,4.1379,4.1508,4.1468,4.1548,4.1693,4.1737,4.1778,4.1984,4.195,4.2011,4.2118,4.2202,4.2225,4.2246,4.2317,4.2343,4.2027,4.2027,4.2027,0,4.1116,4.125,4.1239,4.1341,4.1387,4.1341,4.1456,4.1497,4.1581,4.1614,4.1567,4.1746,4.1784,4.1942,4.1992,4.2028,4.2058,4.2003,4.2223,4.2243,4.2262,4.233,4.2357,4.2034,4.2033,4.2033,4.2032,0,4.1359,4.1452,4.1537,4.1617,4.1673,4.1782,4.1787,4.1846,4.1831,4.1844,4.1975,4.2018,4.2104,4.2141,4.2129,4.2297,4.2269,4.2223,4.2139,4.2298,4.2361,4.2387,4.2044,4.2041,4.2039,4.2038,0,0,4.1612,4.1683,4.1714,4.1749,4.1811,4.1883,4.1989,4.2071,4.2121,4.218,4.2268,4.239,4.2347,4.2394,4.2386,4.246,4.2618,4.2404,4.2405,4.244,4.2803,4.2836,4.2867,4.2596,4.2601,4.2605,4.2797,0,4.1805,4.1988,4.1981,4.2152,4.2237,4.2193,4.2285,4.2334,4.2349,4.2423,4.244,4.2526,4.2463,4.2491,4.2563,4.2583,4.269,4.257,4.2676,4.268,4.266,4.29,4.2936,4.3116,4.2822,4.2827,4.283,0,4.2056,4.2121,4.23,4.2347,4.2383,4.2466,4.2539,4.2611,4.2665,4.267,4.2722,4.2701,4.2807,4.2721,4.2867,4.2785,4.2828,4.2845,4.2852,4.286,4.2763,4.2913,4.3174,4.32,4.2869,4.2866,4.2863,0,4.2219,4.2353,4.2476,4.2508,4.2567,4.2625,4.2653,4.2701,4.275,4.2815,4.2847,4.2924,4.2966,4.3026,4.3026,4.2964,4.3173,4.3088,4.318,4.318,4.3224,4.3221,4.3493,4.3256,4.3256,4.3255,4.3254,0,4.2435,4.2546,4.255,4.2626,4.2748,4.2739,4.286,4.2882,4.2925,4.3004,4.2972,4.3047,4.3044,4.312,4.3121,4.324,4.326,4.3267,4.3265,4.3269,4.3267,4.3295,4.3282,4.3262,4.3261,4.3259,4.3258,0,4.2639,4.2646,4.2777,4.2822,4.2835,4.2923,4.2961,4.3033,4.3045,4.3145,4.3168,4.3187,4.3274,4.328,4.3383,4.3383,4.3527,4.3513,4.3508,4.3505,4.3596,4.3586,4.3894,4.3933,4.3672,4.3675,4.3677,0,4.2775,4.2859,4.2911,4.2961,4.2991,4.3073,4.3122,4.3116,4.3169,4.3235,4.3299,4.3383,4.3449,4.3591,4.3614,4.3691,4.3678,4.378,4.3689,4.3689,4.3676,4.367,4.3678,4.3797,4.38,4.3803,4.3804,0,4.3015,4.3014,4.3086,4.3159,4.3218,4.3276,4.333,4.3373,4.3373,4.3434,4.3522,4.3574,4.3676,4.376,4.3835,4.3863,4.3834,4.3833,4.3858,4.3861,4.3854,4.3856,4.3554,4.3826,4.3824,4.3822,4.3821,4.382,4.3188,4.3259,4.3306,4.3387,4.3426,4.3477,4.3545,4.3564,4.3638,4.3719,4.3712,4.3809,4.3859,4.3956,4.399,4.4066,4.4031,4.4068,4.4077,4.4086,4.4094,4.3843,4.408,4.408,4.4079,4.4079,4.4078,0,4.3424,4.3452,4.3526,4.3601,4.3664,4.363,4.3687,4.3742,4.3828,4.3876,4.3942,4.4042,4.4122,4.4151,4.4228,4.4284,4.4272,4.4304,4.4299,4.4305,4.4122,4.4091,4.4312,4.4312,4.4312,4.4312,4.4312,4.4312,4.3555,4.3672,4.3677,4.3813,4.3841,4.3935,4.397,4.4016,4.4053,4.4166,4.4232,4.425,4.429,4.437,4.4441,4.4448,4.4477,4.4514,4.4515,4.4342,4.4319,4.4296,4.4267,4.4521,4.4522,4.4692,4.4693,4.4694]},{"header":{"parameterUnit":"m.s-1","parameterCategory":1,"la1":30.2991,"la2":30.254,"lo1":-89.0895,"lo2":-89.0444,"dy":0.0017,"dx":0.0017,"nx":28,"ny":28,"refTime":"2024-08-01T03:00:00:Z","depth":0,"parameterNumber":3,"parameterNumberName":"V-component_of_WINDS"},"data":[0,0,0,0,0,0,0,0,0,0,0,0,0,0,0,0,0,0,0,0,0,0,0,0,0,0,0,0,0,0,0,0,0,0,0,0,0,0,0,0,0,0,0,0,0,0,0,0,0,0,0,0,0,0,0,0,0,0,0.9043,0.9044,0,0.9106,0.9107,0.9107,0.9119,0.9119,0.9118,0.9118,0.9182,0.9184,0.9186,0,0,0,0,0,0,0,0,0,0,0,0,0,0.8933,0.8935,0.9043,0.9044,0.9045,0.9106,0.9107,0.9107,0.9119,0.9119,0.9118,0.9117,0.9181,0.9184,0.9187,0,0,0,0,0,0,0,0,0,0,0,0,0,0.8987,0.8936,0.9043,0.9058,0.906,0.9106,0.9107,0.9108,0.9119,0.9119,0.9118,0.9117,0.9181,0.9184,0.9187,0.9222,0,0,0.9197,0.9198,0,0,0,0,0,0,0,0,0.8984,0.8991,0.9055,0.9057,0.9059,0.9104,0.9091,0.9146,0.912,0.9097,0.9118,0.9117,0.9157,0.9162,0.9175,0.9225,0.9228,0.9197,0.9199,0.9201,0.9202,0,0,0,0,0,0,0,0.898,0.8988,0.9068,0.9056,0.9059,0.9061,0.9068,0.9102,0.913,0.9099,0.91,0.9107,0.9158,0.9172,0.9177,0.9229,0.9197,0.92,0.9202,0.9203,0.9309,0.931,0,0,0,0,0,0,0.8974,0.8985,0.9066,0.907,0.9019,0.9064,0.9071,0.909,0.913,0.9135,0.9108,0.9107,0.9167,0.9173,0.9179,0.9222,0.9201,0.9204,0.9206,0.9308,0.9309,0.931,0,0,0,0,0,0,0.8971,0.8981,0.9064,0.9028,0.9038,0.9067,0.9088,0.9092,0.9106,0.9137,0.9142,0.9117,0.9167,0.9175,0.9211,0.9225,0.9205,0.9208,0.9307,0.9308,0.931,0.9309,0,0,0,0,0,0,0.8968,0.898,0.8994,0.9028,0.904,0.9095,0.9089,0.9094,0.9112,0.9112,0.9147,0.9152,0.9167,0.9206,0.9214,0.9229,0.9211,0.9306,0.9308,0.9309,0.9308,0.931,0.9312,0,0,0,0,0,0.8964,0.8992,0.8995,0.9004,0.9059,0.9095,0.9103,0.9119,0.9113,0.9127,0.9146,0.9151,0.9222,0.921,0.9219,0.9235,0.9305,0.9307,0.9309,0.9307,0.9309,0.9312,0,0,0,0,0,0,0.8959,0.8997,0.9,0.904,0.9064,0.9097,0.9116,0.9121,0.9148,0.9147,0.9166,0.9174,0.9209,0.9225,0.9212,0.927,0.9263,0.9267,0.9258,0.9261,0.9263,0.9258,0.9214,0,0,0,0,0,0.8963,0.899,0.9021,0.9053,0.9065,0.9088,0.9105,0.9115,0.9141,0.9152,0.9173,0.9199,0.9226,0.9244,0.9272,0.931,0.9317,0.9325,0.9327,0.9328,0.9332,0.9351,0.9355,0.9316,0.9316,0.9316,0,0,0.8971,0.8994,0.901,0.9052,0.9072,0.9099,0.9097,0.9126,0.9146,0.9156,0.9192,0.9208,0.9237,0.9274,0.9292,0.9289,0.9344,0.9331,0.9332,0.9334,0.9354,0.9357,0.9361,0.9318,0.9317,0.9317,0,0,0.8998,0.9019,0.9047,0.9067,0.9097,0.9112,0.9119,0.9151,0.9162,0.9198,0.9205,0.9229,0.9277,0.9297,0.9314,0.9346,0.9351,0.9354,0.9365,0.9384,0.9387,0.939,0.9401,0.9405,0.9357,0.9358,0.9358,0,0.9004,0.9046,0.9061,0.909,0.9107,0.9117,0.9145,0.9163,0.9201,0.9213,0.9209,0.9268,0.9289,0.933,0.9337,0.935,0.9358,0.9351,0.9385,0.9388,0.9391,0.9402,0.9406,0.9358,0.9358,0.9358,0.9358,0,0.9051,0.9079,0.9098,0.9133,0.9153,0.9181,0.9201,0.9219,0.9226,0.9241,0.9277,0.9301,0.9333,0.9343,0.9352,0.9385,0.9382,0.9382,0.9375,0.9395,0.9405,0.9409,0.9358,0.9358,0.9358,0.9358,0,0,0.9079,0.9121,0.9128,0.9143,0.9176,0.9198,0.9226,0.9256,0.9271,0.9296,0.9319,0.9358,0.9357,0.9376,0.9386,0.9403,0.9426,0.94,0.9401,0.9404,0.9463,0.9463,0.9468,0.9429,0.943,0.9431,0.946,0,0.9111,0.9161,0.9175,0.9217,0.9243,0.9251,0.9275,0.9297,0.9311,0.9335,0.935,0.9377,0.9375,0.9385,0.9402,0.942,0.9438,0.9418,0.9451,0.9452,0.9443,0.9473,0.9474,0.9501,0.9465,0.9465,0.9466,0,0.9155,0.918,0.9224,0.9252,0.9263,0.9285,0.9313,0.9335,0.936,0.9369,0.9389,0.9397,0.9425,0.9416,0.9455,0.9441,0.9455,0.9465,0.9466,0.947,0.946,0.9478,0.951,0.9514,0.9472,0.9472,0.9471,0,0.9171,0.9215,0.9247,0.926,0.9294,0.9308,0.9323,0.9347,0.9364,0.9388,0.9399,0.9426,0.9441,0.9461,0.9476,0.9469,0.9513,0.9506,0.9521,0.9521,0.9531,0.953,0.9566,0.954,0.954,0.954,0.954,0,0.9205,0.9231,0.9254,0.9274,0.9304,0.9319,0.9348,0.9362,0.9383,0.9406,0.9414,0.9435,0.9453,0.9476,0.9487,0.9517,0.9524,0.9531,0.9534,0.9531,0.953,0.9541,0.9539,0.9541,0.954,0.954,0.954,0,0.9227,0.9244,0.9279,0.9307,0.9315,0.9336,0.9359,0.9378,0.9392,0.942,0.9427,0.9448,0.9475,0.9492,0.9527,0.9534,0.9567,0.9569,0.9558,0.956,0.9573,0.9572,0.9618,0.9624,0.9593,0.9594,0.9594,0,0.9248,0.9269,0.9299,0.9314,0.9328,0.9353,0.937,0.9385,0.9401,0.943,0.9445,0.9473,0.9495,0.9538,0.9556,0.9582,0.9585,0.9599,0.9589,0.9584,0.9584,0.9583,0.9585,0.9601,0.9601,0.9601,0.9601,0,0.9283,0.9289,0.9313,0.9339,0.9359,0.938,0.9402,0.9414,0.9432,0.945,0.9478,0.9495,0.9529,0.9556,0.9583,0.9597,0.9602,0.9604,0.9609,0.9606,0.9599,0.9602,0.9563,0.9603,0.9603,0.9603,0.9603,0.9603,0.9305,0.9323,0.9347,0.9372,0.9389,0.9409,0.9427,0.9443,0.9466,0.9495,0.9502,0.953,0.9552,0.9589,0.9604,0.9626,0.9624,0.9631,0.9633,0.9634,0.9634,0.9595,0.9631,0.9631,0.9631,0.9631,0.9631,0,0.934,0.9355,0.9378,0.9407,0.9427,0.9429,0.9452,0.9468,0.9493,0.9514,0.9535,0.9566,0.9591,0.9611,0.9636,0.965,0.9653,0.9656,0.9655,0.9658,0.9635,0.9628,0.9653,0.9653,0.9653,0.9653,0.9653,0.9653,0.936,0.9391,0.94,0.9438,0.9453,0.948,0.9493,0.951,0.9527,0.956,0.9581,0.9593,0.9613,0.964,0.9663,0.9668,0.9677,0.968,0.9685,0.9663,0.966,0.9658,0.9651,0.9681,0.9682,0.9707,0.9707,0.9707]}]]